Regional Weather Roundup
Issued by NWS

Home | Current Version | Previous Version | Text Only | Print | Product List | Glossary Off
Versions: 1 2 3 4 5 6 7 8 9 10 11 12 13 14 15 16 17 18 19 20 21 22 23 24 25 26 27 28 29 30 31 32 33 34 35 36 37 38 39 40 41 42 43 44 45 46 47 48 49 50

178
ASUS43 KLMK 211002
RWRKY
KENTUCKY REGIONAL WEATHER ROUNDUP
NATIONAL WEATHER SERVICE LOUISVILLE KY
500 AM EST SAT JAN 21 2017

NOTE "FAIR" INDICATES FEW OR NO CLOUDS BELOW 12,000 FEET
WITH NO SIGNIFICANT WEATHER AND/OR OBSTRUCTIONS TO VISIBILITY.

KYZ001>023-026-027-061>063-070>075-211100-
WESTERN AND SOUTH CENTRAL KENTUCKY

CITY           SKY/WX    TMP DP  RH WIND       PRES   REMARKS
PADUCAH        CLOUDY    58  51  78 S9        29.64F
HENDERSON      CLOUDY    54  48  82 S7        29.66F
OWENSBORO      MOCLDY    53  50  89 SE5       29.69F
HOPKINSVILLE   MOCLDY    57  53  86 SE7       29.70F
BOWLING GREEN  CLEAR     57  52  83 S3        29.74F
GLASGOW        NOT AVBL
$$

KYZ024-025-028>034-038-045-046-053-211100-
NORTH CENTRAL KENTUCKY

CITY           SKY/WX    TMP DP  RH WIND       PRES   REMARKS
LOUISVILLE/SDF PTCLDY    54  49  83 S8        29.72S
LOUISVILLE/LOU PTCLDY    49  46  90 CALM      29.72F
FORT KNOX      PTCLDY    51  51  99 S3        29.70F
$$

KYZ035>037-039>044-047>052-055>060-089>105-211100-
NORTHEAST KENTUCKY

CITY           SKY/WX    TMP DP  RH WIND       PRES   REMARKS
LEXINGTON      PTCLDY    53  47  79 S8        29.75F
COVINGTON      PTCLDY    50  46  86 S8        29.71F
FRANKFORT      CLEAR     52  46  80 S6        29.73F
$$

KYZ054-064>069-076>088-106>120-211100-
SOUTHEAST KENTUCKY

CITY           SKY/WX    TMP DP  RH WIND       PRES   REMARKS
JACKSON        CLOUDY    56  48  74 S3        29.79F
LONDON         MOCLDY    48  45  89 CALM      29.79F
SOMERSET       NOT AVBL
MIDDLESBORO    PTCLDY    43  43 100 CALM      29.84S
MONTICELLO     PTSUNNY   54  49  83 VRB7      29.79F
$$





USA.gov is the U.S. government's official web portal to all federal, state and local government web resources and services.